Regional Weather Roundup
Issued by NWS Sterling, VA

Home | Current Version | Previous Version | Graphics & Text | Print | Product List | Glossary On
Versions: 1 2 3 4 5 6 7 8 9 10 11 12 13 14 15 16 17 18 19 20 21 22 23 24 25 26 27 28 29 30 31 32 33 34 35 36 37 38 39 40 41 42 43 44 45 46 47 48 49 50
000
ASUS41 KLWX 031810
RWRLWX

REGIONAL WEATHER ROUNDUP
NATIONAL WEATHER SERVICE BALTIMORE MD/WASHINGTON DC
200 PM EDT FRI JUL 03 2015

Note: "FAIR" indicates few or no clouds below 12,000 feet
with no significant weather and/or obstructions to visibility.
 TC=TEMPERATURE CELSIUS

 * =Non NWS site. Station does not report precipitation (e.g. rain,
    snow, etc.), thunder, or fog.

DCZ001-MDZ009-015-VAZ040>042-051-053>054-031900-
WASHINGTON METRO

CITY           SKY/WX    TMP DP  RH WIND       PRES   REMARKS
WASHINGTON NAT PTSUNNY   81  65  58 S7        29.99F
DULLES         CLOUDY    78  62  57 VRB6      29.98F
ANDREWS AFB    PTSUNNY   78  71  78 E5        29.98F
FT BELVOIR     PTSUNNY   79  65  64 SE7       29.98F
QUANTICO       PTSUNNY   78  63  59 CALM      29.98F
COLLEGE PARK*  PTSUNNY   81  59  47 SE7       29.98F
LEESBURG*      CLOUDY    81  63  54 S13       29.99F
MANASSAS*      SUNNY     81  64  57 S7          N/A
GAITHERSBURG*  PTSUNNY   79  61  53 S8        30.03S

$$

MDZ006>007-011-014-031900-
BALTIMORE METRO

CITY           SKY/WX    TMP DP  RH WIND       PRES   REMARKS
BWI AIRPORT    CLOUDY    79  63  57 S7        29.98F
MD SCIENCE CTR   N/A     78  66  66 MISG      29.97F
MARTIN STATE   PTSUNNY   81  70  69 SE8       30.00F
ANNAPOLIS      PTSUNNY   76  63  64 SE12      29.98F
FORT MEADE*    PTSUNNY   79  64  61 SE7       30.01S

$$

MDZ012-015-019>023-031900-
MARYLAND EASTERN SHORE

CITY           SKY/WX    TMP DP  RH WIND       PRES   REMARKS
OCEAN CITY     PTSUNNY   75  63  66 VRB5      29.99F
SALISBURY      PTSUNNY   80  62  54 SE8       29.98F
BAY BRIDGE AP*   N/A     79  59  50 SE6       29.99F
CAMBRIDGE*     MOSUNNY   79  61  53 SW3       29.97F
EASTON*        MOSUNNY   82  64  54 SW6       30.02F

$$

MDZ017>025-031900-
SOUTHERN MARYLAND

CITY           SKY/WX    TMP DP  RH WIND       PRES   REMARKS
PATUXENT RIVER PTSUNNY   79  61  53 E12       29.98F
ST INIGOES     MOSUNNY   80  62  54 E5        29.97F
LEONARDTOWN*   MOSUNNY   79  59  50 SE3       30.00S

$$

MDZ003>005-031900-
NORTH CENTRAL MARYLAND

CITY           SKY/WX    TMP DP  RH WIND       PRES   REMARKS
FREDERICK*     MOSUNNY   82  68  61 S7        30.00
HAGERSTOWN APT PTSUNNY   78  60  53 S10       29.98F
WESTMINSTER*   PTSUNNY   82  68  61 S9        30.00S

$$

MDZ501>502-031900-
WESTERN MARYLAND

CITY           SKY/WX    TMP DP  RH WIND       PRES   REMARKS
OAKLAND*       CLOUDY    68 N/A N/A SE10      30.02F
CUMBERLAND*    CLOUDY    77  63  61 E7        30.01F

$$

VAZ025>031-031900-
SHENANDOAH VALLEY

CITY           SKY/WX    TMP DP  RH WIND       PRES   REMARKS
WINCHESTER*    CLOUDY    79  64  61 SE10      29.98F
FRONT ROYAL*   FAIR      77  64  65 SE5       29.97F
LURAY*         CLOUDY    77  64  65 SW6       29.98F
NEW MARKET*    CLOUDY    75  63  66 S5        29.96F
STAUNTON*      DRIZZLE   70  66  87 CALM      30.03S
WAYNESBORO*    CLOUDY    68  63  82 SE5       30.02F

$$

WVZ021-048>050-054>055-031900-
EASTERN WEST VIRGINIA PANHANDLE

CITY           SKY/WX    TMP DP  RH WIND       PRES   REMARKS
MARTINSBURG    CLOUDY    75  64  68 S5        29.98F
PETERSBURG*    CLOUDY    75  60  58 SE6       29.98

$$

VAZ036>039-050-031900-
CENTRAL FOOTHILLS

CITY           SKY/WX    TMP DP  RH WIND       PRES   REMARKS
CHARLOTTESVILL CLOUDY    74  65  73 S6        29.98F
CULPEPER*      CLOUDY    78  63  58 S5        29.99S
ORANGE*        CLOUDY    79  63  57 E6        29.99F
GORDONSVILLE*  CLOUDY    75  66  73 SW3       29.98F
WARRENTON*     FAIR      80  67  64 S5        29.98F

$$

VAZ055>057-031900-
NORTH AND CENTRAL PIEDMONT

CITY           SKY/WX    TMP DP  RH WIND       PRES   REMARKS
FREDERICKSBRG* CLOUDY    82  64  54 S5        29.96F
STAFFORD*      CLOUDY    78  65  64 S3        30.02F

$$

NCZ024-NYZ072-PAZ021-071-VAZ022-071-031900-
OTHER REGIONAL OBSERVATIONS

CITY           SKY/WX    TMP DP  RH WIND       PRES   REMARKS
NEW YORK CITY  SUNNY     79  51  37 VRB3      30.00F
PHILADELPHIA   PTSUNNY   81  60  48 SE3       29.98F
PITTSBURGH     CLOUDY    79  55  43 SE5       29.94F
ROANOKE        CLOUDY    69  64  84 NE5       30.00F
RICHMOND       PTSUNNY   81  65  58 E7        29.97F
RALEIGH        LGT RAIN  76  69  79 S6        29.95F FOG

$$

ANZ530>537-031900-
MARINE OBSERVATIONS

STATION/POSITION TIME  TEMP    WIND        PRES
                       AIR SEA DIR/SP/G
                 (UTC) (F)     (DEG/KT/KT) (MB)
THOMAS PT LIGHT  1800   75 77  190/  4/  5 1016.1
BALT KEY BRIDGE  1700   74     100/  8/ 10 1015.5F
COVE POINT       1700   74     190/  9/ 11 1016.5S
LEWISETTA        1700   77 80  180/  7/  9 1015.2F
SOLOMONS ISLAND  1700      80                N/A
PINEY POINT      1700          150/  8/  9   N/A

$$



USA.gov is the U.S. government's official web portal to all federal, state and local government web resources and services.